This is the latest recevied weather packets stored in our database for station/object W3BRL. If no packets are shown the sender has not sent any weather packets the latest 10 day(s).
| Time | Temp. | Humidity | Pressure | Rain* | Wind** | Luminosity | Snow |
|---|---|---|---|---|---|---|---|
| 1777857930 | 11.11° C | 41% | 1011.5 hPa | 0 mm | - | 0 W/m² | - |
| 1777857627 | 11.11° C | 41% | 1011.3 hPa | 0 mm | - | 0 W/m² | - |
| 1777857324 | 11.67° C | 41% | 1011.3 hPa | 0 mm | - | 0 W/m² | - |
| 1777857020 | 11.67° C | 40% | 1011.4 hPa | 0 mm | - | 0 W/m² | - |
| 1777856716 | 11.67° C | 40% | 1011.2 hPa | 0 mm | - | 0 W/m² | - |
| 1777856412 | 11.67° C | 40% | 1011.4 hPa | 0 mm | - | 0 W/m² | - |
| 1777856109 | 11.67° C | 40% | 1011.4 hPa | 0 mm | - | 0 W/m² | - |
| 1777855806 | 11.67° C | 40% | 1011.4 hPa | 0 mm | - | 0 W/m² | - |
| 1777855504 | 11.67° C | 39% | 1011.4 hPa | 0 mm | - | 0 W/m² | - |
| 1777855200 | 12.22° C | 39% | 1011.3 hPa | 0 mm | - | 0 W/m² | - |
| 1777854896 | 12.22° C | 39% | 1011.5 hPa | 0 mm | - | 0 W/m² | - |
| 1777854594 | 12.22° C | 38% | 1011.2 hPa | 0 mm | - | 1 W/m² | - |
| 1777854291 | 12.22° C | 38% | 1011.3 hPa | 0 mm | - | 2 W/m² | - |
| 1777853988 | 12.78° C | 37% | 1011.4 hPa | 0 mm | - | 3 W/m² | - |
| 1777853685 | 12.78° C | 37% | 1011.3 hPa | 0 mm | - | 5 W/m² | - |
| 1777853382 | 12.78° C | 37% | 1011.3 hPa | 0 mm | - | 7 W/m² | - |
| 1777853079 | 12.78° C | 36% | 1011.3 hPa | 0 mm | - | 10 W/m² | - |
| 1777852776 | 12.78° C | 36% | 1011.2 hPa | 0 mm | - | 14 W/m² | - |
| 1777852474 | 12.78° C | 36% | 1011.3 hPa | 0 mm | - | 18 W/m² | - |
| 1777852171 | 12.78° C | 35% | 1011.2 hPa | 0 mm | - | 23 W/m² | - |
| 1777851869 | 13.33° C | 36% | 1011.3 hPa | 0 mm | - | 30 W/m² | - |
| 1777851567 | 13.33° C | 35% | 1011.4 hPa | 0 mm | - | 39 W/m² | - |
| 1777851263 | 13.33° C | 35% | 1011.4 hPa | 0 mm | - | 42 W/m² | - |
| 1777850959 | 13.33° C | 34% | 1011.4 hPa | 0 mm | - | 51 W/m² | - |
| 1777850656 | 13.33° C | 34% | 1011.4 hPa | 0 mm | - | 53 W/m² | - |
* Rain latest hour (hover to see other rain measurements)
** Current wind speed in m/s (hover to see current wind gust speed)